Regional Weather Roundup
Issued by NWS Grand Forks, ND

Home | Current Version | Previous Version | Text Only | Print | Product List | Glossary Off
Versions: 1 2 3 4 5 6 7 8 9 10 11 12 13 14 15 16 17 18 19 20 21 22 23 24 25 26 27 28 29 30 31 32 33 34 35 36 37 38 39 40 41 42 43 44 45 46 47 48 49 50

000
ASUS43 KFGF 210910
RWRFGF
PRAIRIE TO PINES  WEATHER ROUNDUP
NATIONAL WEATHER SERVICE EASTERN NORTH DAKOTA/GRAND FORKS ND
400 AM CDT THU SEP 21 2017

 **SATELLITE DATA USED TO AUGMENT SKY COVER AT AUTOMATED STATIONS**
 *****  WEATHER ACROSS EASTERN NORTH DAKOTA  *****

CITY           SKY/WX    TMP DP  RH WIND       PRES   REMARKS
GRAND FORKS    FAIR      51  46  83 S8        29.81F
GRAND FRKS AFB FAIR      49  44  82 S9        29.80F
DEVILS LAKE    FAIR      57  41  55 S14G21    29.74F
FARGO          FAIR      57  47  69 SE14      29.85S
WAHPETON ARPT  FAIR      54  45  71 SE10      29.88S
$$

 ***** WEATHER ACROSS CENTRAL AND WESTERN NORTH DAKOTA  *****

CITY           SKY/WX    TMP DP  RH WIND       PRES   REMARKS
BISMARCK       FAIR      55  40  56 SE10      29.71F
MINOT          FAIR      57  38  48 S13       29.65R
JAMESTOWN      FAIR      47  43  86 S8        29.78F
MINOT AFB      FAIR      49  39  67 S7        29.63S
GARRISON         N/A     57  42  57 S12G21    29.67S
WILLISTON      FAIR      44  39  82 CALM      29.64R
DICKINSON      FAIR      54  35  48 S9        29.64F
HETTINGER      CLOUDY    61  36  39 S9        29.67F
$$

 *****  OTHER AIRPORT OBSERVATIONS IN OUR AREA  *****

CITY           SKY/WX    TMP DP  RH WIND       PRES   REMARKS
WALHALLA       FAIR     N/A N/A N/A S9        29.74S
GRAFTON AIRPOR FAIR      48  45  87 SE12      29.81S
VALLEY CITY AR FAIR      52  48  87 S8        29.83S
CANDO          FAIR      52  45  76 S12       29.73F
CAVALIER APRT  FAIR      50  45  81 S7        29.76F
GWINNER        SUNNY     48  46  93 CALM      29.84S
SHEYENNE NWR     N/A     52  47  83 SE7       29.95S
ROLLA          FAIR      48  39  71 S6        29.70F
 ***** THE ABOVE OBSERVATIONS ARE NON NWS ARE NOT QUALITY
       CONTROLLED AND MAY MIS-REPORT RAIN FOR SNOW...
$$

  *****  WEATHER ACROSS NORTHERN MINNESOTA  *****

CITY           SKY/WX    TMP DP  RH WIND       PRES   REMARKS
FLAG ISLAND    FAIR      59  48  67 S9        29.86S
WARROAD        FAIR      50  45  81 S8        29.89R
ROSEAU         FAIR      54  45  71 S13       29.86S
HALLOCK        CLOUDY    52  45  76 SE12      29.80S
THF RVR FALLS  FAIR      51  43  74 SE9       29.88S
BAUDETTE       FAIR      48  44  86 S7        29.92R
WASKISH        FAIR      50  45  81 SE5       29.93S
CROOKSTON      FAIR      50  45  81 SE8       29.85S
STEPHEN NDAWN    N/A     55  43  62 S13         N/A
GREENBUSH NDAW   N/A     52  43  71 S7          N/A
$$
  *****  WEATHER ACROSS CENTRAL AND WEST MINNESOTA  *****

CITY           SKY/WX    TMP DP  RH WIND       PRES   REMARKS
FOSSTON        FAIR      54  45  71 SE9       29.90S
BEMIDJI        FAIR      42  39  90 SE3       29.94S
PARK RAPIDS    FAIR      51  44  77 SE8       29.95S
ELBOW LAKE     FAIR      53  47  80 E10       29.92S
WADENA         FAIR      46  45  93 SE5       29.95R
DETROIT LAKES  FAIR      52  46  82 SE8       29.93S
MOORHEAD       FAIR      55  46  71 SE10      29.87S
FERGUS FALLS   FAIR      57  46  67 SE14      29.91S
MORRIS MN      FAIR      54  46  76 SE12      29.92S
STAPLES        NOT AVBL
$$
  *****  WEATHER ELSEWHERE ACROSS MINNESOTA  *****

CITY           SKY/WX    TMP DP  RH WIND       PRES   REMARKS
DULUTH         FAIR      44  43  96 CALM      30.02R
INTRNTL FALLS  FAIR      43  40  89 SE6       29.96S
ELY            FAIR      39  39 100 CALM      30.02S
CLOQUET        FAIR      43  39  87 CALM      30.02S
WHEATON        FAIR      52  46  82 SE10      29.91R
BRAINERD       FAIR      44  42  93 CALM      29.99R
HIBBING        FAIR      36  36 100 CALM      30.00F
ALEXANDRIA     FAIR      53  45  74 SE9       29.96S
SAINT CLOUD    FAIR      43  43 100 CALM      29.99S
MINNEAPOLIS    FAIR      54  53  97 CALM      29.99S
$$

  *****  WEATHER ACROSS SOUTH DAKOTA  *****

CITY           SKY/WX    TMP DP  RH WIND       PRES   REMARKS
SIOUX FALLS    FAIR      51  46  83 E3        29.92S
BROOKINGS      FAIR      51  44  77 SE10      29.92S
WATERTOWN      FAIR      53  43  68 S12       29.89R
HURON          FAIR      54  47  77 SE10      29.85S
SISSETON         N/A     48  45  89 SE5       29.88S
ABERDEEN       FAIR      53  47  79 S12       29.83S
MITCHELL       FAIR      54  47  77 SE7       29.87S
PIERRE         FAIR      58  43  57 SE16      29.75F
MOBRIDGE       FAIR      59  44  57 SE13      29.73F
RAPID CITY     NOT AVBL
$$

  *****  SOME WEATHER IN NEARBY STATES *****

CITY           SKY/WX    TMP DP  RH WIND       PRES   REMARKS
GLASGOW MT     FAIR      49  38  65 W5        29.63R
GREAT FALLS MT FAIR      43  29  57 SW16      29.70R
CHEYENNE WY    FAIR      45  32  60 SW7       29.84F
SCOTTSBLUFF NE FAIR      54  36  50 E12       29.77F
OMAHA NE       FAIR      69  55  60 E6        29.86F
DES MOINES IA  FAIR      68  61  78 NE6       29.88F
DAVENPORT IA   MOCLDY    73  63  70 SW8       29.94F
CHICAGO IL     CLOUDY    75  67  76 S3        29.95R
EAU CLAIRE WI  FAIR      50  50 100 CALM      29.98F
LA CROSSE WI   NOT AVBL
$$

  *****  SOME NATIONAL WEATHER *****

CITY           SKY/WX    TMP DP  RH WIND       PRES   REMARKS
LA GUARDIA NY  CLOUDY    73  65  75 N12G22    29.94S
RALEIGH NC     FAIR      69  66  90 CALM      30.01R
ATLANTA GA     FAIR      72  67  84 N6        30.04S
NEW ORLEANS LA FAIR      74  73  97 CALM      29.99S
OKLAHOMA CITY  MOCLDY    79  70  74 S14G22    29.86S
ALBUQUERQUE NM FAIR      65  32  29 E5        30.03F
SALT LAKE CITY FAIR      54  44  69 NW12      29.72R
LOS ANGELES CA CLOUDY    68  63  84 S7        29.85S
BOISE ID       LGT RAIN  47  44  90 N6        29.78R FOG
SEATTLE WA     MOCLDY    50  47  89 SE7       29.85S
$$

*** WEATHER ACROSS MANITOBA...SASKATCHEWAN AND ONTARIO ***
                ***ONTARIO***

CITY           SKY/WX    TMP DP  RH WIND       PRES   REMARKS
GERALDTON      FOG       41  41 100 SW5       30.01R VSB 1/8
THUNDER BAY    CLEAR     45  45 100 W6        30.02R
SIOUX LOOKOUT  CLEAR     48  45  87 S7        29.94R
TORONTO        CLEAR     64  59  82 N3        30.10S
BIG TROUT LK   MOCLDY    54  46  76 SW10G17   29.77R
PICKLE LAKE    NOT AVBL
DRYDEN         CLEAR     52  45  76 S13       29.93R
KENORA         CLEAR     54  46  76 S12       29.88R
$$
                *** MANITOBA***

CITY           SKY/WX    TMP DP  RH WIND       PRES   REMARKS
BRANDON        PTCLDY    52  39  62 S7        29.65S
DAUPHIN        PTCLDY    54  37  54 SW9       29.60F
ISLAND LAKE    PTCLDY    54  43  66 S13G21    29.64R
PILOT MOUND      N/A     48  41  76 S12         N/A
THE PAS        CLEAR     41  37  87 SE2       29.48R
THOMPSON       NOT AVBL
WINNIPEG       CLEAR     52  43  71 S15       29.73F
LYNN LAKE      CLOUDY    41  41 100 N6        29.39R FOG
CHURCHILL      CLOUDY    45  45 100 E7        29.51S FOG
GILLAM         CLEAR     46  43  87 S9        29.52R
$$
                ***SASKATCHEWAN***

CITY           SKY/WX    TMP DP  RH WIND       PRES   REMARKS
ESTEVAN        PTCLDY    39  37  93 W5        29.62S
KINDERSLEY     CLEAR     34  32  93 W12       29.56R
LLOYDMINSTER   CLOUDY    41  41 100 NW8       29.49R FOG
PRINCE ALBERT  PTCLDY    32  30  93 VRB2      29.50R FOG
REGINA         CLOUDY    41  34  75 S8        29.58R
YORKTON        CLEAR     43  34  70 S10       29.58R
N. BATTLEFORD  CLEAR     32  30  93 SW5       29.53R
LA RONGE       LGT RAIN  43  43 100 NW5       29.45R
SASKATOON      CLEAR     34  32  93 SW8       29.54S
SWIFT CURRENT  CLEAR     32  25  74 W12       29.61R WCI  23
$$
NOTE: THESE ARE AUTOMATED STATIONS WITH LIMITED QUALITY CONTROL
      "FAIR" INDICATES FEW OR NO CLOUDS BELOW 12,000 FEET WITH NO
      SIGNIFICANT WEATHER AND/OR OBSTRUCTIONS TO VISIBILITY.
      SKY/WX - SKY CONDITION AND SIGNIFICANT WEATHER.
      TMP - AIR TEMPERATURE.    DP   - DEWPOINT TEMPERATURE.
      RH  - RELATIVE HUMIDITY.  PRES - PRESSURE.
      HX  - HEAT INDEX.         WCI  - WIND CHILL INDEX.
$




USA.gov is the U.S. government's official web portal to all federal, state and local government web resources and services.